Home   Weather   Melhus   Past weeks

Flag for Norway Past Weather in Melhus, Norway — Yesterday and Last 2 Weeks

Now
45 °F

Scattered showers. Partly sunny.


Feels Like: 40 °F
Forecast: 31 / 41 °F
Wind: 8 mph from Northeast

Location: Trondheim / Vaernes

Current Time: Apr 25, 2017 at 5:02:27 pm

Latest Report: Apr 25, 2017 at 4:20 pm


Visibility: N/A

Pressure: 29.71 "Hg

Humidity: 39%

Dew Point: 21 °F

Location of MelhusLocation

Past Weather in Melhus — Graph

°F

Melhus Temperature Yesterday

Maximum temperature yesterday: 43 °F (at 2:20 pm)
Minimum temperature yesterday: 27 °F (at 5:20 am)
Average temperature yesterday: 37 °F

High & Low Weather Summary for the Past Weeks

 TemperatureHumidityPressure
High46 °F (Apr 18, 4:20 pm)100% (Apr 11, 7:50 am)30.51 "Hg (Apr 11, 7:50 am)
Low27 °F (Apr 15, 4:50 am)34% (Apr 17, 4:20 pm)29.42 "Hg (Apr 10, 3:20 pm)
Average37 °F67%29.83 "Hg
* Reported Apr 10 3:20 pm — Apr 25 3:50 pm, Melhus, Weather by CustomWeather, © 2017

Note: Actual official high and low records may vary slightly from our data, if they occured in-between our weather recording intervals... More about our weather records

Advertising

Melhus Weather History for the Previous 24 Hours

Scroll right to see more
 ConditionsComfort  
Time TempWeatherWind HumidityBarometerVisibility
3:50 pm
Tue, Apr 25
45 °FPartly sunny.9 mph42%29.68 "HgN/A
3:20 pm43 °FPartly sunny.10 mph53%29.71 "HgN/A
2:50 pm45 °FPartly sunny.10 mph49%29.71 "HgN/A
2:20 pm43 °FBroken clouds.12 mph49%29.71 "HgN/A
1:50 pm43 °FBroken clouds.12 mph53%29.71 "HgN/A
1:20 pm41 °FBroken clouds.9 mph57%29.71 "HgN/A
12:50 pm41 °FScattered clouds.12 mph57%29.71 "HgN/A
12:20 pm43 °FScattered clouds.9 mph49%29.71 "HgN/A
11:50 am43 °FScattered clouds.8 mph53%29.71 "HgN/A
11:20 am41 °FScattered clouds.6 mph57%29.71 "HgN/A
10:50 am41 °FScattered clouds.6 mph57%29.71 "HgN/A
10:20 am39 °FScattered clouds.8 mph65%29.71 "HgN/A
9:50 am37 °FScattered clouds.7 mph65%29.71 "HgN/A
9:20 am36 °FPassing clouds.5 mph75%29.71 "HgN/A
8:50 am34 °FSunny.1 mph75%29.68 "Hg10 mi
8:20 am34 °FSunny.2 mph75%29.68 "Hg10 mi
7:50 am34 °FSunny.2 mph81%29.68 "Hg10 mi
7:20 am30 °FSunny.2 mph86%29.68 "Hg10 mi
6:50 am30 °FSunny.No wind86%29.68 "Hg10 mi
6:20 am28 °FSunny.2 mph93%29.68 "Hg10 mi
5:50 am28 °FPassing clouds.3 mph93%29.65 "HgN/A
5:20 am28 °FPassing clouds.3 mph93%29.65 "HgN/A
4:20 am30 °FClear.5 mph86%29.65 "Hg10 mi
3:50 am30 °FClear.2 mph86%29.65 "Hg10 mi
3:20 am30 °FClear.2 mph86%29.65 "Hg10 mi
2:50 am32 °FClear.5 mph80%29.65 "Hg10 mi
2:20 am32 °FPassing clouds.5 mph80%29.65 "HgN/A
1:50 am34 °FClear.6 mph75%29.65 "Hg10 mi
1:20 am34 °FClear.7 mph75%29.62 "Hg10 mi
12:50 am36 °FPassing clouds.7 mph75%29.62 "HgN/A
12:20 am37 °FClear.9 mph65%29.62 "Hg10 mi
11:50 pm
Mon, Apr 24
37 °FClear.8 mph65%29.62 "Hg10 mi
11:20 pm37 °FClear.7 mph65%29.62 "Hg10 mi
10:50 pm37 °FClear.7 mph65%29.62 "Hg10 mi
10:20 pm37 °FPassing clouds.5 mph65%29.62 "HgN/A
9:50 pm39 °FPassing clouds.7 mph56%29.62 "HgN/A
9:20 pm39 °FClear.9 mph56%29.62 "Hg10 mi
8:50 pm39 °FSunny.10 mph52%29.62 "Hg10 mi
8:20 pm41 °FSunny.12 mph49%29.62 "Hg10 mi
7:50 pm41 °FSunny.10 mph49%29.62 "Hg10 mi
7:20 pm41 °FSunny.10 mph45%29.59 "Hg10 mi
6:50 pm43 °FSunny.7 mph42%29.59 "Hg10 mi
6:20 pm43 °FPassing clouds.9 mph46%29.59 "HgN/A
5:50 pm43 °FPartly sunny.9 mph46%29.59 "HgN/A
5:20 pm43 °FSunny.12 mph46%29.59 "Hg10 mi
Weather by CustomWeather, © 2017

See weather overviewHow to use our weather pages